Date String (YYYY-MM-DD hh:mm:ss) UTC,Instrument flags,Ambient pressure (hPa),Sample flow (lpm),Bypass flow (lpm),Sample temperature (°C),Ambient temperature (°C),ASC tube jacket temperature (°C),LED temperature (°C),Box temperature (°C),Sample RH (%),Span deviation,Mass concentration (μg/m³),Mass concentration (μg/m³),Mass concentration (μg/m³)
DateTimeUTC,F1_M11,P_M11,Q1_M11,Q2_M11,T1_M11,T2_M11,T3_M11,T4_M11,T5_M11,U1_M11,ZSPAN_M11,X0_M11,X2_M11,X1_M11
2022-07-10 17:00:00,,0831.0,5.01,0.00,35.4,34.7,00.0,43.8,36.9,11.8,0000.0,0008.56,0003.46,0003.03
2022-07-10 17:01:00,,0831.0,4.99,0.00,35.4,34.8,00.0,43.8,37.0,12.1,0000.0,0008.74,0003.49,0003.07
2022-07-10 17:02:00,,0831.0,5.00,0.00,35.4,34.8,00.0,43.8,37.0,11.8,0000.0,0008.47,0003.51,0003.09
2022-07-10 17:03:00,,0831.0,5.01,0.00,35.5,34.8,00.0,43.9,37.1,11.7,0000.0,0008.16,0003.51,0003.12
2022-07-10 17:04:00,,0831.0,4.99,0.00,35.5,34.9,00.0,43.9,37.1,11.1,0000.0,0009.48,0003.55,0003.16
2022-07-10 17:05:00,,0831.0,5.00,0.00,35.5,34.9,00.0,43.9,37.1,11.7,0000.0,0009.68,0003.63,0003.18
2022-07-10 17:06:00,,0831.1,5.00,0.00,35.6,34.9,00.0,44.0,37.1,12.0,0000.0,0009.51,0003.65,0003.20
2022-07-10 17:07:00,,0831.0,5.01,0.00,35.6,35.0,00.0,44.0,37.2,11.5,0000.0,0009.43,0003.67,0003.23
2022-07-10 17:08:00,,0831.1,5.00,0.00,35.6,35.0,00.0,44.1,37.2,11.4,0000.0,0009.39,0003.67,0003.26
2022-07-10 17:09:00,,0831.0,4.99,0.00,35.7,35.0,00.0,44.1,37.2,11.4,0000.0,0009.50,0003.72,0003.28
2022-07-10 17:10:00,,0831.0,5.01,0.00,35.7,35.1,00.0,44.1,37.3,11.7,0000.0,0009.34,0003.71,0003.29
2022-07-10 17:11:00,,0831.0,5.01,0.00,35.8,35.1,00.0,44.2,37.3,11.6,0000.0,0008.55,0003.74,0003.31
2022-07-10 17:12:00,,0831.0,4.99,0.00,35.8,35.1,00.0,44.2,37.3,11.5,0000.0,0008.43,0003.75,0003.33
2022-07-10 17:13:00,,0831.0,4.99,0.00,35.8,35.2,00.0,44.2,37.4,11.5,0000.0,0008.47,0003.77,0003.34
2022-07-10 17:14:00,,0831.1,4.99,0.00,35.9,35.2,00.0,44.3,37.4,11.7,0000.0,0008.47,0003.80,0003.35
2022-07-10 17:15:00,,0831.0,5.01,0.00,35.9,35.2,00.0,44.3,37.4,11.6,0000.0,0007.01,0003.83,0003.36
2022-07-10 17:16:00,,0831.1,5.00,0.00,35.9,35.2,00.0,44.4,37.5,11.4,0000.0,0006.51,0003.83,0003.39
2022-07-10 17:17:00,,0831.0,4.99,0.00,36.0,35.3,00.0,44.4,37.5,11.6,0000.0,0006.42,0003.84,0003.41
2022-07-10 17:18:00,,0831.0,5.01,0.00,36.0,35.3,00.0,44.4,37.5,11.8,0000.0,0007.40,0003.87,0003.42
2022-07-10 17:19:00,,0830.9,5.00,0.00,36.0,35.4,00.0,44.5,37.6,11.3,0000.0,0007.55,0003.93,0003.47
2022-07-10 17:20:00,,0830.9,5.01,0.00,36.1,35.4,00.0,44.5,37.6,11.2,0000.0,0008.08,0003.97,0003.51
2022-07-10 17:21:00,,0830.9,4.99,0.00,36.1,35.4,00.0,44.5,37.6,11.3,0000.0,0008.61,0004.07,0003.59
2022-07-10 17:22:00,,0830.9,4.98,0.00,36.1,35.4,00.0,44.6,37.6,11.0,0000.0,0010.02,0004.17,0003.67
2022-07-10 17:23:00,,0830.9,5.00,0.00,36.2,35.5,00.0,44.6,37.7,10.9,0000.0,0014.77,0004.30,0003.76
2022-07-10 17:24:00,,0830.9,5.00,0.00,36.2,35.5,00.0,44.6,37.7,10.6,0000.0,0015.24,0004.41,0003.86
2022-07-10 17:25:00,,0830.9,5.00,0.00,36.2,35.5,00.0,44.7,37.7,10.8,0000.0,0015.57,0004.51,0003.95
2022-07-10 17:26:00,,0830.9,5.01,0.00,36.3,35.6,00.0,44.7,37.8,11.0,0000.0,0015.68,0004.62,0004.05
2022-07-10 17:27:00,,0830.9,5.00,0.00,36.3,35.6,00.0,44.7,37.8,10.6,0000.0,0015.78,0004.71,0004.16
2022-07-10 17:28:00,,0830.9,4.99,0.00,36.3,35.7,00.0,44.8,37.8,10.9,0000.0,0015.93,0004.82,0004.25
2022-07-10 17:29:00,,0830.9,4.99,0.00,36.4,35.7,00.0,44.8,37.9,10.7,0000.0,0015.89,0004.95,0004.38
2022-07-10 17:30:00,,0830.9,5.01,0.00,36.4,35.7,00.0,44.8,37.9,10.8,0000.0,0016.76,0005.07,0004.47
2022-07-10 17:31:00,,0831.0,5.00,0.00,36.4,35.7,00.0,44.9,37.9,11.0,0000.0,0016.62,0005.18,0004.57
2022-07-10 17:32:00,,0830.9,5.00,0.00,36.5,35.8,00.0,44.9,38.0,10.9,0000.0,0016.34,0005.28,0004.66
2022-07-10 17:33:00,,0830.9,4.99,0.00,36.5,35.8,00.0,44.9,38.0,11.0,0000.0,0015.88,0005.32,0004.73
2022-07-10 17:34:00,,0830.9,4.99,0.00,36.5,35.8,00.0,45.0,38.0,11.0,0000.0,0010.51,0005.33,0004.77
2022-07-10 17:35:00,,0830.9,5.00,0.00,36.6,35.9,00.0,45.0,38.0,11.0,0000.0,0010.96,0005.37,0004.82
2022-07-10 17:36:00,,0830.8,5.00,0.00,36.6,35.9,00.0,45.0,38.1,10.7,0000.0,0010.72,0005.42,0004.85
2022-07-10 17:37:00,,0830.8,5.00,0.00,36.6,35.9,00.0,45.1,38.1,10.5,0000.0,0010.70,0005.43,0004.89
2022-07-10 17:38:00,,0830.8,5.00,0.00,36.7,36.0,00.0,45.1,38.1,10.5,0000.0,0010.91,0005.52,0004.96
2022-07-10 17:39:00,,0830.8,5.00,0.00,36.7,36.0,00.0,45.1,38.2,10.6,0000.0,0011.27,0005.61,0005.01
2022-07-10 17:40:00,,0830.8,4.99,0.00,36.7,36.1,00.0,45.2,38.2,10.8,0000.0,0011.25,0005.63,0005.02
2022-07-10 17:41:00,,0830.7,5.02,0.00,36.8,36.1,00.0,45.2,38.2,10.9,0000.0,0010.94,0005.61,0005.01
2022-07-10 17:42:00,,0830.7,5.00,0.00,36.8,36.1,00.0,45.2,38.3,10.7,0000.0,0010.80,0005.58,0004.99
2022-07-10 17:43:00,,0830.8,5.01,0.00,36.8,36.2,00.0,45.3,38.3,10.7,0000.0,0010.63,0005.52,0004.96
2022-07-10 17:44:00,,0830.7,5.00,0.00,36.9,36.2,00.0,45.3,38.3,10.4,0000.0,0010.61,0005.52,0004.95
2022-07-10 17:45:00,,0830.8,5.00,0.00,36.9,36.2,00.0,45.4,38.4,10.5,0000.0,0010.67,0005.52,0004.94
2022-07-10 17:46:00,,0830.8,5.00,0.00,36.9,36.3,00.0,45.4,38.4,10.6,0000.0,0009.97,0005.48,0004.90
2022-07-10 17:47:00,,0830.7,5.00,0.00,37.0,36.3,00.0,45.4,38.4,10.3,0000.0,0009.93,0005.48,0004.90
2022-07-10 17:48:00,,0830.8,5.00,0.00,37.0,36.3,00.0,45.5,38.4,10.3,0000.0,0009.94,0005.48,0004.90
2022-07-10 17:49:00,,0830.8,5.00,0.00,37.0,36.4,00.0,45.5,38.5,10.7,0000.0,0009.95,0005.41,0004.84
2022-07-10 17:50:00,,0830.8,5.00,0.00,37.1,36.4,00.0,45.5,38.5,11.2,0000.0,0009.94,0005.27,0004.74
2022-07-10 17:51:00,,0830.8,5.00,0.00,37.1,36.4,00.0,45.6,38.5,10.8,0000.0,0009.65,0005.22,0004.69
2022-07-10 17:52:00,,0830.8,5.00,0.00,37.1,36.4,00.0,45.6,38.6,11.0,0000.0,0009.07,0005.19,0004.66
2022-07-10 17:53:00,,0830.7,5.00,0.00,37.2,36.5,00.0,45.6,38.6,10.8,0000.0,0008.95,0005.15,0004.64
2022-07-10 17:54:00,,0830.7,5.00,0.00,37.2,36.5,00.0,45.7,38.6,10.8,0000.0,0008.96,0005.14,0004.62
2022-07-10 17:55:00,,0830.7,5.01,0.00,37.2,36.5,00.0,45.7,38.6,10.6,0000.0,0009.08,0005.15,0004.60
2022-07-10 17:56:00,,0830.6,4.99,0.00,37.3,36.6,00.0,45.7,38.7,10.4,0000.0,0009.26,0005.17,0004.61
2022-07-10 17:57:00,,0830.6,4.99,0.00,37.3,36.6,00.0,45.8,38.7,10.4,0000.0,0009.48,0005.21,0004.63
2022-07-10 17:58:00,,0830.6,5.01,0.00,37.3,36.7,00.0,45.8,38.8,10.4,0000.0,0009.43,0005.20,0004.64
2022-07-10 17:59:00,,0830.6,5.00,0.00,37.4,36.7,00.0,45.8,38.8,10.0,0000.0,0009.36,0005.17,0004.62
